Weather reports worldwide

Advertisment
Ronchi Dei Legionari, Italy (16108): temperature & dewpoint: 10.12.2019 03:00:00 - 16.12.2019 03:00:00 (CET)Ronchi Dei Legionari, Italy (16108): wind speed: 10.12.2019 03:00:00 - 16.12.2019 03:00:00 (CET)Ronchi Dei Legionari, Italy (16108): wind direction: 10.12.2019 03:00:00 - 16.12.2019 03:00:00 (CET)Ronchi Dei Legionari, Italy (16108): reduced air pressure: 10.12.2019 03:00:00 - 16.12.2019 03:00:00 (CET)Ronchi Dei Legionari, Italy (16108): visibility: 10.12.2019 03:00:00 - 16.12.2019 03:00:00 (CET)Ronchi Dei Legionari, Italy (16108): precipitation: 10.12.2019 03:00:00 - 16.12.2019 03:00:00 (CET)
Date & Time tt [°C] td [°C] ff [km/h] ff [kn] dd ppp [hPa] vv [km] rr [mm]
16.12.2019 03:00:00 7,0 7,0 5 3 N - 10 -
16.12.2019 02:00:00 7,0 7,0 5 3 WNW - 10 -
16.12.2019 01:00:00 6,9 6,6 2 1 N 1019,5 10 -
16.12.2019 00:00:00 8,0 7,0 4 2 NNW - 10 -
15.12.2019 23:00:00 8,0 8,0 4 2 - - 10 -
15.12.2019 22:00:00 8,6 7,9 2 1 E 1018,9 10 0,0
15.12.2019 21:00:00 9,0 8,0 4 2 NW - 10 -
15.12.2019 20:00:00 9,0 8,0 2 1 - - 10 -
15.12.2019 19:00:00 9,4 8,2 2 1 - 1017,4 10 -
15.12.2019 18:00:00 10,0 8,0 5 3 NNW - 10 -
15.12.2019 17:00:00 11,0 9,0 4 2 NNW - 10 -
15.12.2019 16:00:00 11,3 8,6 4 2 SSE 1016,0 10 0,0
15.12.2019 15:00:00 12,0 8,0 5 3 N - 10 -
15.12.2019 14:00:00 11,0 7,0 4 2 - - 10 -
15.12.2019 13:00:00 10,3 6,6 5 3 NNW 1014,9 10 -
15.12.2019 12:00:00 12,0 9,0 4 2 N - 10 -
15.12.2019 11:00:00 10,0 6,0 5 3 N - 10 -
15.12.2019 10:00:00 8,4 5,6 5 3 NNW 1014,6 10 0,0
15.12.2019 09:00:00 6,0 4,0 5 3 N - 10 -
15.12.2019 08:00:00 4,0 2,0 9 5 N - 10 -
15.12.2019 07:00:00 4,8 2,3 5 3 N 1013,7 10 -
15.12.2019 06:00:00 5,0 2,0 8 4 N - 10 -
15.12.2019 05:00:00 4,0 2,0 5 3 N - 10 -
15.12.2019 04:00:00 3,7 1,2 8 4 N 1012,7 10 0,0
15.12.2019 03:00:00 3,0 1,0 5 3 NNE - 10 -
15.12.2019 02:00:00 3,0 2,0 8 4 NNE - 10 -
15.12.2019 01:00:00 2,0 1,2 5 3 NNE 1012,0 10 -
15.12.2019 00:00:00 3,0 3,0 5 3 ENE - 10 -
14.12.2019 23:00:00 2,0 2,0 5 3 NNE - 10 -
14.12.2019 22:00:00 2,8 2,6 5 3 NE 1010,2 10 0,0
14.12.2019 21:00:00 3,0 2,0 4 2 ENE - 10 -
14.12.2019 20:00:00 4,0 3,0 8 4 E - 10 -
14.12.2019 19:00:00 4,8 2,5 8 4 ENE 1007,5 10 -
14.12.2019 18:00:00 7,0 3,0 8 4 ENE - 10 -
14.12.2019 17:00:00 8,0 3,0 4 2 ENE - 10 -
14.12.2019 16:00:00 10,3 2,7 2 1 - 1004,4 10 0,0
14.12.2019 15:00:00 12,0 3,0 2 1 - - 10 -
14.12.2019 14:00:00 12,0 3,0 4 2 - - 10 -
14.12.2019 13:00:00 11,2 3,1 4 2 - 1002,3 10 -
14.12.2019 12:00:00 10,0 4,0 5 3 NW - 10 -
14.12.2019 11:00:00 8,0 4,0 5 3 NNW - 10 -
14.12.2019 10:00:00 6,1 3,5 5 3 NNW 1000,9 10 0,0
14.12.2019 09:00:00 3,0 2,0 2 1 - - 10 -
14.12.2019 08:00:00 2,0 2,0 4 2 NNE - 10 -
14.12.2019 07:00:00 2,7 1,5 16 9 ESE 998,6 10 -
14.12.2019 06:00:00 1,0 0,0 5 3 ENE - 10 -
14.12.2019 05:00:00 3,0 1,0 4 2 - - 10 -
14.12.2019 04:00:00 2,2 1,2 5 3 E 994,9 10 0,0
14.12.2019 03:00:00 4,0 3,0 8 4 NNE - 10 -
14.12.2019 02:00:00 6,0 4,0 18 10 W - 10 -
14.12.2019 01:00:00 6,3 4,6 15 8 W 992,2 10 -
14.12.2019 00:00:00 5,0 5,0 4 2 - - 10 -
13.12.2019 23:00:00 6,0 5,0 2 1 - - 10 -
13.12.2019 22:00:00 6,0 4,7 11 6 NNW 987,9 10 0,0
13.12.2019 21:00:00 6,0 5,0 22 12 N - 8 -
13.12.2019 20:00:00 7,0 4,0 24 13 NNE - 10 -
13.12.2019 19:00:00 6,8 4,9 22 12 NE 984,5 7 -
13.12.2019 18:00:00 7,0 5,0 24 13 ENE - 6 -
13.12.2019 17:00:00 8,0 6,0 26 14 E - 5 -
13.12.2019 16:00:00 7,7 6,5 29 16 E 983,7 6 0,0
13.12.2019 15:00:00 6,0 5,0 11 6 ENE - 7 -
13.12.2019 14:00:00 4,0 4,0 13 7 NNE - 6 -
13.12.2019 13:00:00 4,0 3,4 15 8 NNE 989,1 7 -
13.12.2019 12:00:00 4,0 4,0 11 6 NNE - 6 -
13.12.2019 11:00:00 4,0 3,0 9 5 ENE - 7 -
13.12.2019 10:00:00 3,7 3,2 5 3 E 994,7 5 0,0
13.12.2019 09:00:00 3,0 3,0 8 4 NNE - 7 -
13.12.2019 08:00:00 2,0 2,0 4 2 SSE - 6 -
13.12.2019 07:00:00 2,7 2,3 4 2 SSW 996,8 10 -
13.12.2019 06:00:00 3,0 2,0 5 3 NNW - 10 -
13.12.2019 05:00:00 3,0 2,0 11 6 N - 10 -
13.12.2019 04:00:00 3,1 2,0 8 4 WNW 998,2 10 0,0
13.12.2019 03:00:00 3,0 1,0 9 5 E - 10 -
13.12.2019 02:00:00 3,0 2,0 11 6 E - 10 -
13.12.2019 01:00:00 3,2 2,6 8 4 NE 1000,1 10 -
13.12.2019 00:00:00 3,0 2,0 4 2 - - 7 -
12.12.2019 23:00:00 3,0 2,0 9 5 NE - 7 -
12.12.2019 22:00:00 3,2 2,3 8 4 NNE 1001,9 7 0,0
12.12.2019 21:00:00 3,0 2,0 9 5 NNE - 7 -
12.12.2019 20:00:00 3,0 2,0 9 5 N - 8 -
12.12.2019 19:00:00 3,0 1,9 5 3 NNE 1003,3 7 -
12.12.2019 18:00:00 4,0 2,0 13 7 NE - 6 -
12.12.2019 17:00:00 4,0 3,0 9 5 NE - 6 -
12.12.2019 16:00:00 4,2 2,3 11 6 ENE 1004,3 6 0,0
12.12.2019 15:00:00 5,0 2,0 9 5 E - 7 -
12.12.2019 14:00:00 6,0 0,0 2 1 - - 8 -
12.12.2019 13:00:00 6,2 -0,1 5 3 WNW 1004,5 10 -
12.12.2019 12:00:00 6,0 -1,0 9 5 N - 10 -
12.12.2019 11:00:00 6,0 -1,0 11 6 NNE - 10 -
12.12.2019 10:00:00 5,3 -1,2 5 3 NNW 1007,0 10 0,0
12.12.2019 09:00:00 4,0 -2,0 8 4 NNE - 10 -
12.12.2019 08:00:00 3,0 -2,0 11 6 ENE - 10 -
12.12.2019 07:00:00 2,5 -2,8 8 4 NE 1006,3 10 -
12.12.2019 06:00:00 3,0 -3,0 9 5 ENE - 10 -
12.12.2019 05:00:00 1,0 -4,0 4 2 - - 10 -
12.12.2019 04:00:00 1,1 -3,5 4 2 - 1006,1 10 0,0
12.12.2019 03:00:00 1,0 -4,0 2 1 - - 10 -
12.12.2019 02:00:00 -2,0 -4,0 2 1 - - 10 -
12.12.2019 01:00:00 -2,5 -4,5 4 2 - 1007,9 10 -
12.12.2019 00:00:00 -2,0 -4,0 8 4 NW - 10 -
11.12.2019 23:00:00 1,0 -6,0 5 3 NNE - 10 -
11.12.2019 22:00:00 0,7 -6,0 5 3 NW 1009,9 10 0,0
11.12.2019 21:00:00 2,0 -6,0 11 6 N - 10 -
11.12.2019 20:00:00 -2,0 -4,0 5 3 NW - 10 -
11.12.2019 19:00:00 0,6 -4,4 4 2 - 1011,5 10 -
11.12.2019 18:00:00 1,0 -5,0 4 2 N - 10 -
11.12.2019 17:00:00 5,0 -7,0 5 3 N - 10 -
11.12.2019 16:00:00 7,4 -7,2 5 3 NNW 1013,0 10 0,0
11.12.2019 15:00:00 9,0 -8,0 8 4 NNW - 10 -
11.12.2019 14:00:00 9,0 -9,0 8 4 N - 10 -
11.12.2019 13:00:00 8,7 -7,7 11 6 N 1015,7 10 -
11.12.2019 12:00:00 8,0 -6,0 9 5 N - 10 -
11.12.2019 11:00:00 7,0 -6,0 8 4 N - 10 -
11.12.2019 10:00:00 5,4 -4,3 5 3 NNW 1018,9 10 0,0
11.12.2019 09:00:00 2,0 -6,0 4 2 - - 10 -
11.12.2019 08:00:00 -1,0 -6,0 9 5 N - 10 -
11.12.2019 07:00:00 -3,9 -5,4 9 5 NNW 1020,3 10 -
11.12.2019 06:00:00 -3,0 -4,0 4 2 - - 10 -
11.12.2019 05:00:00 -2,0 -4,0 4 2 - - 10 -
11.12.2019 04:00:00 -2,4 -4,4 4 2 NNE 1021,0 10 0,0
11.12.2019 03:00:00 -3,0 -4,0 4 2 - - 10 -
11.12.2019 02:00:00 -2,0 -3,0 5 3 WNW - 10 -
11.12.2019 01:00:00 -0,8 -4,1 2 1 - 1022,2 10 -
11.12.2019 00:00:00 0,0 -4,0 4 2 - - 10 -
10.12.2019 23:00:00 3,0 -4,0 4 2 - - 10 -
10.12.2019 22:00:00 4,3 -4,3 11 6 E 1023,1 10 0,0
10.12.2019 21:00:00 5,0 -3,0 4 2 - - 10 -
10.12.2019 20:00:00 7,0 -3,0 11 6 ENE - 10 -
10.12.2019 19:00:00 7,3 -3,5 8 4 ENE 1021,7 10 -
10.12.2019 18:00:00 7,0 -1,0 4 2 - - 10 -
10.12.2019 17:00:00 8,0 1,0 15 8 E - 10 -
10.12.2019 16:00:00 11,0 4,9 5 3 W 1019,0 10 0,0
10.12.2019 15:00:00 13,0 3,0 5 3 WNW - 10 -
10.12.2019 14:00:00 13,0 3,0 8 4 WNW - 10 -
10.12.2019 13:00:00 12,2 3,8 9 5 NNW 1017,7 10 -
10.12.2019 12:00:00 11,0 5,0 8 4 NNW - 10 -
10.12.2019 11:00:00 10,0 6,0 5 3 NW - 10 -
10.12.2019 10:00:00 7,4 5,2 2 1 - 1016,8 10 0,0
10.12.2019 09:00:00 3,0 3,0 4 2 - - 10 -
10.12.2019 08:00:00 2,0 2,0 8 4 NW - 10 -
10.12.2019 07:00:00 2,9 2,9 8 4 NNW 1013,7 10 -
10.12.2019 06:00:00 2,0 2,0 9 5 N - 10 -
10.12.2019 05:00:00 2,0 2,0 5 3 N - 10 -
10.12.2019 04:00:00 2,6 2,6 5 3 ENE 1011,5 5 0,0
10.12.2019 03:00:00 3,0 3,0 4 2 - - 0,5 -

tt = temperature
td = dewpoint
ff = wind speed
dd = wind direction
ppp = reduced air pressure
vv = visibility
rr = precipitation

Next stations